KF7PIZ Weather Reports


time (UTC)temp
C
wind
direction
speed
KPH
gust
KPH
rain 1hr
cm
rain 24hr
cm
rain mn
cm
humidity
%
barometer
mb
20260505231001 22 121 0.0 0.0 0.00 0.03 0.03 37 1012.4
20260505230458 22 156 0.0 0.0 0.00 0.03 0.03 41 1012.6
20260505225954 22 154 0.0 0.0 0.00 0.03 0.03 41 1012.6
20260505225452 21 183 0.0 0.0 0.00 0.03 0.03 41 1012.8
20260505224948 21 154 0.0 0.0 0.00 0.03 0.03 43 1012.9
20260505224445 21 164 0.0 0.0 0.00 0.03 0.03 43 1012.9
20260505223942 21 162 0.0 0.0 0.00 0.03 0.03 45 1012.9
20260505223439 20 193 0.0 0.0 0.00 0.03 0.03 44 1013.1
20260505222935 20 110 0.0 0.0 0.00 0.03 0.03 46 1013.0
20260505222432 20 151 0.0 0.0 0.00 0.03 0.03 48 1013.2
20260505221927 20 186 0.0 1.6 0.00 0.03 0.03 46 1013.2
20260505221425 20 189 0.0 0.0 0.00 0.03 0.03 42 1013.0
20260505220922 21 151 0.0 0.0 0.00 0.03 0.03 44 1013.6
20260505220419 21 153 0.0 0.0 0.00 0.03 0.03 45 1013.3
20260505215916 20 157 0.0 0.0 0.00 0.03 0.03 42 1013.4
20260505215415 21 152 0.0 1.6 0.00 0.03 0.03 42 1013.6
20260505214912 21 159 0.0 0.0 0.00 0.03 0.03 46 1013.7
20260505214409 20 166 0.0 0.0 0.00 0.03 0.03 43 1014.0
20260505213907 20 203 1.6 1.6 0.00 0.03 0.03 47 1013.9
20260505213404 20 148 0.0 1.6 0.00 0.03 0.03 43 1013.7
20260505212900 20 154 0.0 0.0 0.00 0.03 0.03 47 1013.7
20260505212357 19 154 0.0 1.6 0.00 0.03 0.03 45 1013.7
20260505211854 18 154 0.0 0.0 0.00 0.03 0.03 48 1014.1
20260505211351 19 160 0.0 0.0 0.00 0.03 0.03 47 1014.2
20260505210847 20 133 0.0 0.0 0.00 0.03 0.03 47 1014.1
20260505210344 20 141 0.0 0.0 0.00 0.03 0.03 50 1014.2
20260505205841 18 149 0.0 0.0 0.00 0.03 0.03 48 1014.1
20260505205340 18 154 0.0 0.0 0.00 0.03 0.03 49 1014.1
20260505204836 20 157 0.0 0.0 0.00 0.03 0.03 46 1014.2
20260505204334 20 28 0.0 0.0 0.00 0.03 0.03 52 1014.4
20260505203831 20 144 0.0 0.0 0.00 0.03 0.03 48 1014.2
20260505203327 18 152 0.0 0.0 0.00 0.03 0.03 52 1014.4
20260505202824 18 149 0.0 1.6 0.00 0.03 0.03 53 1014.1
20260505202320 18 154 0.0 0.0 0.00 0.03 0.03 50 1014.6
20260505201817 20 162 0.0 0.0 0.00 0.03 0.03 48 1014.5
20260505201314 20 177 0.0 0.0 0.00 0.03 0.03 53 1014.4
20260505200813 19 155 0.0 0.0 0.00 0.03 0.03 52 1014.4
20260505200309 19 157 0.0 0.0 0.00 0.03 0.03 50 1014.5
20260505195804 18 154 0.0 0.0 0.00 0.03 0.03 57 1014.5
20260505195305 20 205 0.0 0.0 0.00 0.03 0.03 50 1014.7
20260505194759 20 159 0.0 0.0 0.00 0.03 0.03 56 1014.5
20260505194256 20 157 0.0 0.0 0.00 0.03 0.03 56 1014.7
20260505193756 19 153 0.0 0.0 0.00 0.03 0.03 56 1014.7
20260505193255 18 159 0.0 0.0 0.00 0.03 0.03 53 1014.7
20260505192753 18 162 0.0 0.0 0.00 0.03 0.03 56 1014.6
20260505192250 18 156 0.0 0.0 0.00 0.03 0.03 58 1014.6
20260505191748 17 168 0.0 0.0 0.00 0.03 0.03 60 1014.7
20260505191246 18 190 0.0 0.0 0.00 0.03 0.03 61 1014.6
20260505190742 17 145 0.0 0.0 0.00 0.03 0.03 60 1014.7
20260505190237 18 142 0.0 0.0 0.00 0.03 0.03 54 1014.6
20260505185734 17 153 0.0 0.0 0.00 0.03 0.03 63 1014.8
20260505185230 17 155 0.0 0.0 0.00 0.03 0.03 57 1014.6
20260505184726 17 153 0.0 0.0 0.00 0.03 0.03 62 1014.7
20260505184224 16 149 0.0 0.0 0.00 0.03 0.03 64 1014.9
20260505183720 15 155 0.0 0.0 0.00 0.03 0.03 68 1014.9
20260505183218 15 153 0.0 0.0 0.00 0.03 0.03 67 1014.8
20260505182714 15 175 0.0 0.0 0.00 0.03 0.03 65 1014.7
20260505182211 15 158 0.0 0.0 0.00 0.03 0.03 69 1015.0
20260505181708 15 150 0.0 0.0 0.00 0.03 0.03 71 1014.8
20260505181206 15 152 0.0 0.0 0.00 0.03 0.03 64 1014.8
20260505180701 15 151 0.0 0.0 0.00 0.03 0.03 68 1014.8
20260505180159 15 75 0.0 0.0 0.00 0.03 0.03 69 1014.8
20260505175654 15 151 0.0 0.0 0.00 0.03 0.03 72 1014.7
20260505175151 13 150 0.0 0.0 0.00 0.03 0.03 74 1014.6
20260505174648 13 147 0.0 0.0 0.00 0.03 0.03 75 1014.7
20260505174144 13 153 0.0 0.0 0.00 0.03 0.03 75 1014.6
20260505173641 12 150 0.0 0.0 0.00 0.03 0.03 79 1014.7
20260505173137 12 148 0.0 0.0 0.00 0.03 0.03 80 1014.6
20260505172635 11 186 0.0 0.0 0.00 0.03 0.03 77 1014.7
20260505172132 11 155 0.0 0.0 0.00 0.03 0.03 78 1014.7
20260505171626 11 165 0.0 0.0 0.00 0.03 0.03 80 1014.6
20260505171124 11 170 0.0 0.0 0.00 0.03 0.03 80 1014.6
20260505170621 11 151 0.0 0.0 0.00 0.03 0.03 81 1014.4
20260505170117 10 154 0.0 0.0 0.00 0.03 0.03 84 1014.5
20260505165612 10 152 0.0 0.0 0.00 0.03 0.03 84 1014.5
20260505165108 10 155 0.0 0.0 0.00 0.03 0.03 88 1014.5
20260505164604 10 158 0.0 0.0 0.00 0.03 0.03 92 1014.4
20260505164102 9 153 0.0 0.0 0.00 0.03 0.03 93 1014.4
20260505163600 9 156 0.0 0.0 0.00 0.03 0.03 94 1014.8
20260505163057 8 160 0.0 0.0 0.00 0.03 0.03 95 1014.2
20260505162555 8 161 0.0 0.0 0.00 0.03 0.03 95 1014.1
20260505162052 8 157 0.0 0.0 0.00 0.03 0.03 96 1014.1
20260505161549 8 155 0.0 0.0 0.00 0.03 0.03 98 1014.0
20260505161047 8 156 0.0 0.0 0.00 0.03 0.03 98 1013.8
20260505160544 8 155 0.0 0.0 0.00 0.03 0.03 98 1013.9
20260505153021 8 157 0.0 0.0 0.00 0.03 0.03 99 1013.8
20260505152518 8 156 0.0 0.0 0.00 0.03 0.03 99 1013.7
20260505152013 8 147 0.0 0.0 0.00 0.03 0.03 99 1013.8
20260505151509 8 146 0.0 0.0 0.00 0.03 0.03 99 1013.7
20260505151006 8 150 0.0 0.0 0.00 0.03 0.03 99 1013.6
20260505150503 8 150 0.0 0.0 0.00 0.03 0.03 99 1013.6
20260505140433 7 145 0.0 0.0 0.00 0.03 0.03 99 1013.0
20260505124846 7 146 0.0 0.0 0.00 0.03 0.03 99 1012.1
20260505124343 7 146 0.0 0.0 0.00 0.03 0.03 99 1012.2
20260505123839 7 146 0.0 0.0 0.00 0.03 0.03 99 1012.3
20260505123336 7 146 0.0 0.0 0.00 0.03 0.03 99 1012.2
20260505122832 7 146 0.0 0.0 0.00 0.03 0.03 99 1012.1
20260505122329 7 146 0.0 0.0 0.00 0.03 0.03 99 1012.0
20260505121826 7 146 0.0 0.0 0.00 0.03 0.03 99 1012.3
20260505121323 7 146 0.0 0.0 0.00 0.03 0.03 99 1012.1
20260505120819 7 147 0.0 0.0 0.00 0.03 0.03 99 1012.3
20260505120315 7 147 0.0 0.0 0.00 0.03 0.03 99 1012.2
20260505115814 7 147 0.0 0.0 0.00 0.03 0.03 99 1012.3
20260505115312 7 147 0.0 0.0 0.00 0.03 0.03 99 1012.2
20260505114809 7 147 0.0 0.0 0.00 0.03 0.03 99 1012.1
20260505114305 7 147 0.0 0.0 0.00 0.03 0.03 99 1012.1
20260505113802 7 147 0.0 0.0 0.00 0.03 0.03 99 1012.1
20260505113258 7 147 0.0 0.0 0.00 0.03 0.03 99 1012.1
20260505112754 7 147 0.0 0.0 0.00 0.03 0.03 99 1012.2
20260505112252 7 147 0.0 0.0 0.00 0.03 0.03 99 1012.2
20260505111752 7 147 0.0 0.0 0.00 0.03 0.03 99 1012.1
20260505111248 7 147 0.0 0.0 0.00 0.03 0.03 99 1012.1
20260505110744 7 147 0.0 0.0 0.00 0.03 0.03 99 1012.3
20260505110243 7 147 0.0 0.0 0.00 0.03 0.03 99 1012.3
20260505102218 6 147 0.0 0.0 0.00 0.03 0.03 99 1012.4
20260505101716 6 147 0.0 0.0 0.00 0.03 0.03 99 1012.5
20260505101212 6 147 0.0 0.0 0.00 0.03 0.03 99 1012.3
20260505100708 6 147 0.0 0.0 0.00 0.03 0.03 99 1012.3
20260505100206 7 147 0.0 0.0 0.00 0.03 0.03 99 1012.5
20260505095701 7 146 0.0 0.0 0.00 0.03 0.03 99 1012.5
20260505095159 7 143 0.0 0.0 0.00 0.03 0.03 99 1012.5
20260505094654 7 153 0.0 0.0 0.00 0.03 0.03 99 1012.5
20260505094151 7 153 0.0 0.0 0.00 0.03 0.03 99 1012.6
20260505093648 7 153 0.0 0.0 0.00 0.03 0.03 99 1012.8
20260505093145 7 153 0.0 0.0 0.00 0.03 0.03 99 1012.5
20260505092642 7 144 0.0 0.0 0.00 0.03 0.03 99 1012.6
20260505092141 7 149 0.0 0.0 0.00 0.03 0.03 99 1012.5
20260505091637 7 145 0.0 0.0 0.00 0.03 0.03 99 1012.6
20260505091135 7 143 0.0 0.0 0.00 0.03 0.03 99 1012.5
20260505090632 7 146 0.0 0.0 0.00 0.03 0.03 99 1012.8
20260505090131 7 147 0.0 0.0 0.00 0.03 0.03 99 1012.6
20260505085628 7 148 0.0 0.0 0.00 0.03 0.03 99 1012.6
20260505085126 7 148 0.0 0.0 0.00 0.03 0.03 99 1013.0
20260505084623 7 152 0.0 0.0 0.00 0.03 0.03 99 1012.9
20260505084122 7 153 0.0 0.0 0.00 0.03 0.03 99 1013.1
20260505083619 7 153 0.0 0.0 0.00 0.03 0.03 99 1013.0
20260505083115 7 152 0.0 0.0 0.18 0.03 0.03 99 1013.1
20260505082611 7 152 0.0 0.0 0.18 0.03 0.03 99 1013.1
20260505082108 7 152 0.0 0.0 0.00 0.00 0.00 99 1012.9
20260505081604 7 152 0.0 0.0 0.00 0.00 0.00 99 1013.1
20260505081102 7 153 0.0 0.0 0.00 0.00 0.00 99 1013.0
20260505080558 7 132 0.0 0.0 0.00 0.00 0.00 99 1013.1
20260505080055 7 152 0.0 0.0 0.00 0.00 0.00 99 1012.9
20260505075550 7 145 0.0 0.0 0.00 0.00 0.00 99 1013.0
20260505075047 7 150 0.0 0.0 0.00 0.00 0.00 99 1013.0
20260505074544 7 151 0.0 0.0 0.00 0.00 0.00 99 1012.8
20260505074042 7 151 0.0 0.0 0.00 0.00 0.00 99 1012.6
20260505073539 7 154 0.0 0.0 0.00 0.00 0.00 99 1012.9
20260505073038 7 152 0.0 0.0 0.00 0.00 0.00 99 1013.1
20260505072532 7 167 0.0 0.0 0.00 0.00 0.00 99 1013.1
20260505072029 7 146 0.0 0.0 0.00 0.00 0.00 98 1013.3
20260505071524 7 146 0.0 0.0 0.00 0.00 0.00 98 1013.2
20260505071023 7 153 0.0 0.0 0.00 0.00 0.00 98 1013.4
20260505070520 7 154 0.0 0.0 0.13 0.00 0.00 99 1013.2
20260505070016 7 147 0.0 0.0 0.13 1.35 1.35 98 1013.0
20260505065512 7 151 0.0 0.0 0.00 1.32 1.32 98 1013.0
20260505065009 7 149 0.0 0.0 0.18 1.32 1.32 98 1012.9
20260505064506 7 155 0.0 0.0 0.18 1.32 1.32 98 1012.6
20260505064004 7 153 0.0 0.0 0.13 1.30 1.30 98 1012.8
20260505063501 7 156 0.0 0.0 0.13 1.30 1.30 98 1012.5
20260505062956 7 149 0.0 0.0 0.00 1.27 1.27 98 1012.4
20260505062453 7 147 0.0 0.0 0.00 1.27 1.27 98 1012.4
20260505061951 7 147 0.0 0.0 0.00 1.27 1.27 98 1012.8
20260505061449 7 147 0.0 0.0 0.00 1.27 1.27 98 1012.5
20260505060946 7 147 0.0 0.0 0.00 1.27 1.27 98 1012.2
20260505060443 6 147 0.0 0.0 0.00 1.27 1.27 98 1012.5
20260505055939 6 153 0.0 0.0 0.00 1.27 1.27 98 1012.3
20260505055435 6 150 0.0 0.0 0.00 1.27 1.27 98 1012.4
20260505054932 6 150 0.0 0.0 0.00 1.27 1.27 98 1012.3
20260505054430 7 145 0.0 0.0 0.00 1.27 1.27 98 1012.4
20260505053927 7 148 0.0 0.0 0.00 1.27 1.27 98 1012.6
20260505053424 7 145 0.0 0.0 0.18 1.27 1.27 98 1012.5
20260505052921 7 143 0.0 0.0 0.18 1.27 1.27 98 1012.5
20260505052418 7 143 0.0 0.0 0.00 1.24 1.24 98 1012.9
20260505051915 7 143 0.0 0.0 0.00 1.24 1.24 98 1013.0
20260505051412 7 148 0.0 0.0 0.00 1.24 1.24 98 1012.8
20260505050910 7 149 0.0 0.0 0.00 1.24 1.24 98 1013.1
20260505050408 7 152 0.0 0.0 0.00 1.24 1.24 98 1012.8
20260505041336 7 132 0.0 0.0 0.13 1.24 1.24 97 1012.4
20260505040833 7 149 0.0 0.0 0.00 1.22 1.22 97 1012.9
20260505040331 7 147 0.0 0.0 0.00 1.22 1.22 97 1012.8
20260505035827 7 149 0.0 0.0 0.00 1.22 1.22 97 1012.4
20260505035323 7 146 0.0 0.0 0.00 1.22 1.22 97 1012.3
20260505034820 7 149 0.0 0.0 0.00 1.22 1.22 97 1012.4
20260505034317 7 150 0.0 0.0 0.00 1.22 1.22 97 1012.3
20260505033814 7 149 0.0 0.0 0.00 1.22 1.22 97 1012.3
20260505033311 7 155 0.0 0.0 0.18 1.22 1.22 97 1012.2
20260505032809 7 151 0.0 0.0 0.18 1.22 1.22 96 1011.2
20260505032305 7 169 0.0 0.0 0.36 1.22 1.22 97 1012.0
20260505031802 7 153 0.0 0.0 0.48 1.19 1.19 96 1012.4
20260505031258 7 148 0.0 0.0 0.61 1.17 1.17 96 1012.8
20260505030756 7 150 0.0 0.0 0.61 1.12 1.12 96 1012.5
20260505030252 7 142 0.0 0.0 0.30 1.07 1.07 96 1012.5
20260505025747 7 136 0.0 0.0 0.00 1.02 1.02 96 1012.6
20260505025246 7 147 0.0 0.0 0.00 1.02 1.02 96 1012.5
20260505024744 7 21 0.0 1.6 0.00 1.02 1.02 96 1012.6
20260505024241 8 148 0.0 0.0 0.00 1.02 1.02 96 1012.4
20260505023738 8 0 0.0 1.6 0.00 1.02 1.02 96 1012.5
20260505023235 8 157 0.0 0.0 0.00 1.02 1.02 96 1012.3
20260505022732 8 144 0.0 0.0 0.00 1.02 1.02 96 1012.0
20260505022229 8 146 0.0 0.0 0.00 1.02 1.02 96 1011.8
20260505021726 8 151 0.0 0.0 0.00 1.02 1.02 96 1011.8
20260505021223 8 151 0.0 0.0 0.00 1.02 1.02 96 1012.0
20260505020718 8 121 0.0 0.0 0.00 1.02 1.02 95 1011.6
20260505020214 8 146 0.0 0.0 0.00 1.02 1.02 95 1011.6
20260505015712 8 144 0.0 0.0 0.00 1.02 1.02 95 1011.6
20260505015209 8 145 0.0 0.0 0.13 1.02 1.02 95 1011.7
20260505014705 8 151 0.0 0.0 0.13 1.02 1.02 94 1011.0
20260505014203 8 215 1.6 3.2 0.18 0.99 0.99 94 1010.5
20260505013659 8 181 0.0 0.0 0.97 0.99 0.99 94 1012.1
20260505013157 8 160 0.0 0.0 1.07 0.97 0.97 94 1012.4
20260505012655 8 167 0.0 0.0 0.61 0.84 0.84 94 1013.1
20260505012152 8 155 0.0 0.0 0.61 0.79 0.79 93 1013.4
20260505011652 8 157 0.0 0.0 0.61 0.74 0.74 93 1012.9
20260505011150 8 186 0.0 0.0 0.61 0.69 0.69 92 1012.6
20260505010645 8 147 0.0 0.0 0.61 0.64 0.64 92 1012.5
20260505010142 8 178 0.0 0.0 0.89 0.58 0.58 92 1012.4
20260505005638 9 169 0.0 0.0 1.07 0.53 0.53 90 1012.3
20260505005135 9 148 0.0 0.0 1.55 0.43 0.43 89 1012.5
20260505004632 9 163 0.0 0.0 1.50 0.36 0.36 88 1012.3
20260505004129 10 146 0.0 0.0 0.79 0.20 0.20 87 1012.6
20260505003626 10 153 0.0 0.0 0.30 0.10 0.10 84 1012.6
20260505003124 10 127 0.0 0.0 0.13 0.08 0.08 79 1012.0
20260505002619 10 162 0.0 0.0 0.00 0.05 0.05 78 1011.4
20260505002118 11 176 0.0 1.6 0.00 0.05 0.05 78 1011.5
20260505001615 11 217 1.6 3.2 0.00 0.05 0.05 75 1011.2
20260505001112 11 214 1.6 1.6 0.00 0.05 0.05 72 1011.3
20260505000609 11 152 0.0 0.0 0.00 0.05 0.05 70 1011.2
20260505000107 11 156 0.0 1.6 0.00 0.05 0.05 70 1010.9
20260504235603 11 179 1.6 1.6 0.00 0.05 0.05 70 1010.9
20260504235100 12 165 0.0 0.0 0.00 0.05 0.05 69 1010.7
20260504234557 12 219 1.6 3.2 0.00 0.05 0.05 69 1010.7
20260504234054 12 173 0.0 0.0 0.00 0.05 0.05 71 1010.9
20260504233549 12 154 0.0 0.0 0.00 0.05 0.05 70 1010.8
20260504233046 12 73 1.6 1.6 0.00 0.05 0.05 68 1010.8
20260504232543 12 279 1.6 4.8 0.00 0.05 0.05 68 1011.0
20260504232041 13 209 1.6 3.2 0.00 0.05 0.05 65 1010.7
20260504231537 13 167 0.0 0.0 0.00 0.05 0.05 61 1011.2